Time,TemperatureF,DewpointF,PressureIn,WindDirection,WindDirectionDegrees,WindSpeedMPH,WindSpeedGustMPH,Humidity,HourlyPrecipIn,Conditions,Clouds,dailyrainin,SoftwareType,DateUTC
2013-03-07 00:00:00,30.6,26.6,30.29,NNW,346,1.2,2.9,85,0.00,,,0.00,WUHU216HW,2013-03-07 05:00:00,
2013-03-07 00:15:00,30.4,26.5,30.29,SSW,213,1.1,5.4,85,0.00,,,0.00,WUHU216HW,2013-03-07 05:15:00,
2013-03-07 00:30:00,30.4,26.5,30.29,NNE,31,1.7,3.4,85,0.00,,,0.00,WUHU216HW,2013-03-07 05:30:00,
2013-03-07 00:45:00,30.4,26.5,30.29,NNW,334,1.0,2.9,85,0.00,,,0.00,WUHU216HW,2013-03-07 05:45:00,
2013-03-07 01:00:00,30.2,26.3,30.29,NNE,29,1.1,5.4,85,0.00,,,0.00,WUHU216HW,2013-03-07 06:00:00,
2013-03-07 01:15:00,30.2,26.3,30.30,NNW,340,1.4,3.1,85,0.00,,,0.00,WUHU216HW,2013-03-07 06:15:00,
2013-03-07 01:30:00,30.2,26.0,30.30,NNE,22,1.3,3.1,84,0.00,,,0.00,WUHU216HW,2013-03-07 06:30:00,
2013-03-07 01:45:00,30.2,26.3,30.30,West,272,0.9,2.5,85,0.00,,,0.00,WUHU216HW,2013-03-07 06:45:00,
2013-03-07 02:00:00,30.2,26.0,30.29,NNE,28,1.1,5.8,84,0.00,,,0.00,WUHU216HW,2013-03-07 07:00:00,
2013-03-07 02:15:00,30.2,26.0,30.29,NNE,29,0.9,3.1,84,0.00,,,0.00,WUHU216HW,2013-03-07 07:15:00,
2013-03-07 02:30:00,30.1,25.8,30.28,South,182,1.0,5.8,84,0.00,,,0.00,WUHU216HW,2013-03-07 07:30:00,
2013-03-07 02:45:00,30.1,25.6,30.27,East,80,0.8,3.1,83,0.00,,,0.00,WUHU216HW,2013-03-07 07:45:00,
2013-03-07 03:00:00,30.1,25.6,30.26,West,272,1.5,4.0,83,0.00,,,0.00,WUHU216HW,2013-03-07 08:00:00,
2013-03-07 03:15:00,30.1,25.6,30.27,SW,233,1.2,4.7,83,0.00,,,0.00,WUHU216HW,2013-03-07 08:15:00,
2013-03-07 03:30:00,29.9,25.4,30.26,WNW,292,1.2,3.6,83,0.00,,,0.00,WUHU216HW,2013-03-07 08:30:00,
2013-03-07 03:45:00,29.9,25.0,30.26,WNW,295,1.2,3.4,82,0.00,,,0.00,WUHU216HW,2013-03-07 08:45:00,
2013-03-07 04:00:00,29.9,25.0,30.27,WNW,294,1.2,5.1,82,0.00,,,0.00,WUHU216HW,2013-03-07 09:00:00,
2013-03-07 04:15:00,29.9,24.8,30.27,ENE,70,1.3,4.7,81,0.00,,,0.00,WUHU216HW,2013-03-07 09:15:00,
2013-03-07 04:30:00,29.9,25.0,30.26,NNE,30,1.3,3.1,82,0.00,,,0.00,WUHU216HW,2013-03-07 09:30:00,
2013-03-07 04:45:00,29.9,24.8,30.27,NE,54,1.1,3.6,81,0.00,,,0.00,WUHU216HW,2013-03-07 09:45:00,
2013-03-07 05:00:00,29.9,24.8,30.27,NNE,30,1.3,3.8,81,0.00,,,0.00,WUHU216HW,2013-03-07 10:00:00,
2013-03-07 05:15:00,29.9,25.0,30.27,NE,54,1.0,2.5,82,0.00,,,0.00,WUHU216HW,2013-03-07 10:15:00,
2013-03-07 05:30:00,29.7,24.8,30.27,North,6,1.1,3.4,82,0.00,,,0.00,WUHU216HW,2013-03-07 10:30:00,
2013-03-07 05:45:00,29.5,24.7,30.27,NE,34,1.3,3.6,82,0.00,,,0.00,WUHU216HW,2013-03-07 10:45:00,
2013-03-07 06:00:00,29.5,25.0,30.27,NW,305,0.8,3.6,83,0.00,,,0.00,WUHU216HW,2013-03-07 11:00:00,
2013-03-07 06:15:00,29.3,24.9,30.28,NNE,14,1.1,3.6,83,0.00,,,0.00,WUHU216HW,2013-03-07 11:15:00,
2013-03-07 06:30:00,29.3,24.9,30.28,WNW,288,1.0,2.9,83,0.00,,,0.00,WUHU216HW,2013-03-07 11:30:00,
2013-03-07 06:45:00,29.3,24.9,30.28,NNE,18,1.1,3.4,83,0.00,,,0.00,WUHU216HW,2013-03-07 11:45:00,
2013-03-07 07:00:00,29.3,24.9,30.28,NW,308,1.0,3.8,83,0.00,,,0.00,WUHU216HW,2013-03-07 12:00:00,
2013-03-07 07:15:00,29.5,25.0,30.28,NNW,327,1.1,2.5,83,0.00,,,0.00,WUHU216HW,2013-03-07 12:15:00,
2013-03-07 07:31:00,29.5,25.0,30.28,NNW,340,1.1,3.4,83,0.00,,,0.00,WUHU216HW,2013-03-07 12:31:00,
2013-03-07 07:46:00,29.7,25.2,30.28,WNW,296,1.3,4.7,83,0.00,,,0.00,WUHU216HW,2013-03-07 12:46:00,
2013-03-07 08:01:00,29.9,25.0,30.28,East,89,1.1,3.6,82,0.00,,,0.00,WUHU216HW,2013-03-07 13:01:00,
2013-03-07 08:16:00,30.1,24.9,30.28,NNE,18,1.3,5.4,81,0.00,,,0.00,WUHU216HW,2013-03-07 13:16:00,
2013-03-07 08:31:00,30.2,25.4,30.28,WNW,288,1.0,4.0,82,0.00,,,0.00,WUHU216HW,2013-03-07 13:31:00,
2013-03-07 08:46:00,30.4,25.3,30.28,ENE,71,1.3,4.0,81,0.00,,,0.00,WUHU216HW,2013-03-07 13:46:00,
2013-03-07 09:01:00,30.6,25.5,30.28,North,8,1.3,3.4,81,0.00,,,0.00,WUHU216HW,2013-03-07 14:01:00,
2013-03-07 09:16:00,30.6,25.5,30.27,North,349,1.4,5.4,81,0.00,,,0.00,WUHU216HW,2013-03-07 14:16:00,
2013-03-07 09:31:00,31.0,25.8,30.26,NNE,18,1.5,4.3,81,0.00,,,0.00,WUHU216HW,2013-03-07 14:31:00,
2013-03-07 09:46:00,31.1,25.7,30.26,NNE,20,1.7,4.7,80,0.00,,,0.00,WUHU216HW,2013-03-07 14:46:00,
2013-03-07 10:01:00,31.3,25.6,30.26,NE,55,1.7,5.1,79,0.00,,,0.00,WUHU216HW,2013-03-07 15:01:00,
2013-03-07 10:16:00,31.3,25.6,30.26,East,83,1.4,4.0,79,0.00,,,0.00,WUHU216HW,2013-03-07 15:16:00,
2013-03-07 10:31:00,31.5,25.7,30.26,NNE,18,2.0,7.6,79,0.00,,,0.00,WUHU216HW,2013-03-07 15:31:00,
2013-03-07 10:46:00,31.9,26.1,30.26,ENE,64,1.8,4.3,79,0.00,,,0.00,WUHU216HW,2013-03-07 15:46:00,
2013-03-07 11:01:00,32.2,26.5,30.26,NNE,27,2.0,5.4,79,0.00,,,0.00,WUHU216HW,2013-03-07 16:01:00,
2013-03-07 11:16:00,32.4,26.3,30.26,East,85,1.7,5.8,78,0.00,,,0.00,WUHU216HW,2013-03-07 16:16:00,
2013-03-07 11:31:00,32.6,26.2,30.26,East,83,2.0,4.7,77,0.00,,,0.00,WUHU216HW,2013-03-07 16:31:00,
2013-03-07 11:46:00,32.6,26.2,30.26,East,90,1.9,4.5,77,0.00,,,0.00,WUHU216HW,2013-03-07 16:46:00,
2013-03-07 12:01:00,32.8,26.3,30.25,East,80,2.2,7.4,77,0.00,,,0.00,WUHU216HW,2013-03-07 17:01:00,
2013-03-07 12:16:00,33.5,26.6,30.25,East,82,1.9,3.8,76,0.00,,,0.00,WUHU216HW,2013-03-07 17:16:00,
2013-03-07 12:31:00,33.7,26.8,30.24,SSE,157,2.1,4.9,76,0.00,,,0.00,WUHU216HW,2013-03-07 17:31:00,
2013-03-07 12:46:00,33.5,26.3,30.24,North,351,2.3,5.4,75,0.00,,,0.00,WUHU216HW,2013-03-07 17:46:00,
2013-03-07 13:01:00,34.0,26.8,30.24,ESE,105,1.7,4.3,75,0.00,,,0.00,WUHU216HW,2013-03-07 18:01:00,
2013-03-07 13:16:00,34.0,26.2,30.23,NNE,22,1.9,4.7,73,0.00,,,0.00,WUHU216HW,2013-03-07 18:16:00,
2013-03-07 13:31:00,34.2,26.6,30.23,ESE,110,1.7,6.0,74,0.00,,,0.00,WUHU216HW,2013-03-07 18:31:00,
2013-03-07 13:46:00,34.2,26.6,30.22,East,84,1.7,4.7,74,0.00,,,0.00,WUHU216HW,2013-03-07 18:46:00,
2013-03-07 14:01:00,34.4,26.6,30.22,ENE,65,1.7,4.9,73,0.00,,,0.00,WUHU216HW,2013-03-07 19:01:00,
2013-03-07 14:16:00,34.4,26.6,30.22,East,82,1.2,3.4,73,0.00,,,0.00,WUHU216HW,2013-03-07 19:16:00,
2013-03-07 14:31:00,34.6,26.7,30.22,East,99,1.6,4.7,73,0.00,,,0.00,WUHU216HW,2013-03-07 19:31:00,
2013-03-07 14:46:00,34.6,26.7,30.22,ESE,108,1.7,4.5,73,0.00,,,0.00,WUHU216HW,2013-03-07 19:46:00,
2013-03-07 15:01:00,34.6,26.7,30.22,North,356,1.3,3.6,73,0.00,,,0.00,WUHU216HW,2013-03-07 20:01:00,
2013-03-07 15:16:00,34.6,26.7,30.22,ENE,71,1.7,4.7,73,0.02,,,0.02,WUHU216HW,2013-03-07 20:16:00,
2013-03-07 15:31:00,34.9,27.1,30.22,SE,128,1.0,3.1,73,0.02,,,0.02,WUHU216HW,2013-03-07 20:31:00,
2013-03-07 15:46:00,34.4,26.6,30.21,East,91,1.9,4.0,73,0.02,,,0.02,WUHU216HW,2013-03-07 20:46:00,
2013-03-07 16:01:00,34.2,26.4,30.21,SE,124,1.1,4.5,73,0.02,,,0.02,WUHU216HW,2013-03-07 21:01:00,
2013-03-07 16:16:00,34.2,26.6,30.21,East,80,1.1,3.4,74,0.00,,,0.02,WUHU216HW,2013-03-07 21:16:00,
2013-03-07 16:31:00,34.2,27.0,30.21,NW,315,0.9,2.7,75,0.00,,,0.02,WUHU216HW,2013-03-07 21:31:00,
2013-03-07 16:46:00,34.0,26.8,30.21,NE,51,1.3,3.4,75,0.00,,,0.02,WUHU216HW,2013-03-07 21:46:00,
2013-03-07 17:01:00,34.0,26.5,30.22,ESE,113,1.0,5.6,74,0.00,,,0.02,WUHU216HW,2013-03-07 22:01:00,
2013-03-07 17:16:00,33.8,26.6,30.22,NNE,30,1.2,3.6,75,0.00,,,0.02,WUHU216HW,2013-03-07 22:16:00,
2013-03-07 17:31:00,33.8,26.6,30.22,SW,233,0.7,2.2,75,0.00,,,0.02,WUHU216HW,2013-03-07 22:31:00,
2013-03-07 17:46:00,33.7,26.5,30.23,SW,216,0.4,1.1,75,0.00,,,0.02,WUHU216HW,2013-03-07 22:46:00,
2013-03-07 18:01:00,33.5,26.6,30.23,WNW,283,0.8,2.9,76,0.00,,,0.02,WUHU216HW,2013-03-07 23:01:00,
2013-03-07 18:16:00,33.3,26.5,30.23,NNW,345,1.3,3.1,76,0.00,,,0.02,WUHU216HW,2013-03-07 23:16:00,
2013-03-07 18:31:00,33.1,26.3,30.23,WNW,293,0.5,1.8,76,0.00,,,0.02,WUHU216HW,2013-03-07 23:31:00,
2013-03-07 18:46:00,33.1,26.3,30.23,WNW,295,1.0,2.2,76,0.00,,,0.02,WUHU216HW,2013-03-07 23:46:00,
2013-03-07 19:01:00,33.1,26.3,30.23,NNW,329,1.4,4.5,76,0.00,,,0.02,WUHU216HW,2013-03-08 00:01:00,
2013-03-07 19:16:00,33.1,26.3,30.23,WNW,289,1.3,3.4,76,0.00,,,0.02,WUHU216HW,2013-03-08 00:16:00,
2013-03-07 19:31:00,33.1,26.3,30.23,NNW,341,1.1,4.0,76,0.00,,,0.02,WUHU216HW,2013-03-08 00:31:00,
2013-03-07 19:46:00,33.1,26.3,30.22,NW,317,0.9,2.5,76,0.00,,,0.02,WUHU216HW,2013-03-08 00:46:00,
2013-03-07 20:01:00,33.1,26.3,30.22,WNW,288,1.1,2.7,76,0.00,,,0.02,WUHU216HW,2013-03-08 01:01:00,
2013-03-07 20:16:00,33.1,26.0,30.21,NW,311,1.2,3.6,75,0.00,,,0.02,WUHU216HW,2013-03-08 01:16:00,
2013-03-07 20:31:00,33.1,26.0,30.21,NW,308,1.5,4.0,75,0.00,,,0.02,WUHU216HW,2013-03-08 01:31:00,
2013-03-07 20:46:00,33.1,26.3,30.21,West,263,0.9,2.7,76,0.00,,,0.02,WUHU216HW,2013-03-08 01:46:00,
2013-03-07 21:01:00,32.8,26.0,30.21,NNE,25,1.1,2.7,76,0.00,,,0.02,WUHU216HW,2013-03-08 02:01:00,
2013-03-07 21:16:00,32.8,26.0,30.20,NNE,18,1.4,4.5,76,0.00,,,0.02,WUHU216HW,2013-03-08 02:16:00,
2013-03-07 21:31:00,32.8,26.0,30.19,NE,53,1.0,2.5,76,0.00,,,0.02,WUHU216HW,2013-03-08 02:31:00,
2013-03-07 21:47:00,32.8,26.0,30.19,ENE,60,0.9,3.4,76,0.00,,,0.02,WUHU216HW,2013-03-08 02:47:00,
2013-03-07 22:02:00,32.8,25.4,30.19,ENE,68,1.0,2.5,74,0.00,,,0.02,WUHU216HW,2013-03-08 03:02:00,
2013-03-07 22:17:00,32.8,25.7,30.19,NE,42,1.1,4.3,75,0.00,,,0.02,WUHU216HW,2013-03-08 03:17:00,
2013-03-07 22:32:00,32.9,25.8,30.19,East,97,1.0,3.8,75,0.00,,,0.02,WUHU216HW,2013-03-08 03:32:00,
2013-03-07 22:47:00,32.8,25.7,30.19,NNE,29,1.0,4.0,75,0.00,,,0.02,WUHU216HW,2013-03-08 03:47:00,
2013-03-07 23:02:00,32.8,25.7,30.19,North,5,1.3,3.6,75,0.00,,,0.02,WUHU216HW,2013-03-08 04:02:00,
2013-03-07 23:17:00,32.6,25.2,30.19,ENE,65,1.4,4.5,74,0.00,,,0.02,WUHU216HW,2013-03-08 04:17:00,
2013-03-07 23:32:00,32.6,25.5,30.19,WNW,303,1.0,2.7,75,0.00,,,0.02,WUHU216HW,2013-03-08 04:32:00,
2013-03-07 23:47:00,32.4,25.7,30.18,NNW,341,0.6,1.8,76,0.00,,,0.02,WUHU216HW,2013-03-08 04:47:00,